Tracking 19792 objects as of 17-Jul-2019
HD Live streaming from Space Station
objects crossing your sky now

COSMOS 1275 DEB


COSMOS 1275 DEB is no longer on orbit


NORAD ID: 12764
Int'l Code: 1981-053DH
Perigee: N/A
Apogee: N/A
Inclination: N/A
Period: N/A
Semi major axis: N/A
RCS: N/A
Launch date: June 4, 1981
Source: Commonwealth of Independent States (former USSR) (CIS)
Launch site: PLESETSK MISSILE AND SPACE COMPLEX (PKMTR)
Decay date: 2015-02-13

Note: This is SATELLITE DEBRIS
aabbcc
Your satellite tracking list
Your tracking list is empty




NASA's NSSDC Master Catalog

Two Line Element Set (TLE):
1 12764U 81053DH  15044.56204466  .20930658 -18221-5  71692-2 0  9994
2 12764 082.8802 087.3521 0042305 136.5564 231.7684 16.22944926734257
Source of the keplerian elements: AFSPC